Weather History for Rickenbacker, OH

Change the Weather History Date:

Thursday, March 28, 2013

  Actual Average Record
Temperature  
Mean Temperature 41 °F -  
Max Temperature 52 °F 56 °F 78 °F (2003)
Min Temperature 30 °F 37 °F 23 °F (2001)
Degree Days  
Heating Degree Days 24    
Moisture  
Dew Point 22 °F    
Average Humidity 49    
Maximum Humidity 70    
Minimum Humidity 29    
Precipitation  
Precipitation 0.00 in - - ()
Sea Level Pressure  
Sea Level Pressure 30.27 in    
Wind  
Wind Speed 9 mph (WNW)    
Max Wind Speed 15 mph    
Max Gust Speed 24 mph    
Visibility 10 miles    
Events      
Averages and records for this station are not official NWS values.
T = Trace of Precipitation, MM = Missing Value Source: NWS Daily Summary

Daily Weather History Graph

Daily Weather History Graph

Search for Another Location

Airport:

Trip Planner

Search our weather history database for the weather conditions in past years. The results will help you decide how hot, cold, wet, or windy it might be!

Date:

Astronomy

Mar. 28, 2013 Rise Set
Actual Time 7:21 AM EDT 7:52 PM EDT
Civil Twilight 6:54 AM EDT 8:19 PM EDT
Nautical Twilight 6:22 AM EDT 8:51 PM EDT
Astronomical Twilight 5:50 AM EDT 9:24 PM EDT
Moon 9:42 PM EDT (3/28) 7:49 AM EDT (3/28)
Length of Visible Light 13h 24m
Length of Day
12h 30m
Full, 98% of the Moon is Illuminated
Mar 28
Full
Apr 3
Last Quarter
Apr 10
New
Apr 18
First Quarter
Apr 25
Full

Hourly Weather History & Observations

Time (EDT) Temp. Windchill Dew Point Humidity Pressure Visibility Wind Dir Wind Speed Gust Speed Precip Events Conditions
12:15 AM 37.4 °F 30.3 °F 23.9 °F 58% 30.25 in 10.0 mi West 10.4 mph - N/A   Clear
12:35 AM 36.7 °F 28.9 °F 23.9 °F 60% 30.25 in 10.0 mi West 11.5 mph - N/A   Clear
12:55 AM 36.1 °F 29.3 °F 23.9 °F 61% 30.25 in 10.0 mi West 9.2 mph - N/A   Clear
1:15 AM 35.8 °F 28.8 °F 24.1 °F 62% 30.25 in 10.0 mi West 9.2 mph - N/A   Clear
1:35 AM 35.4 °F 27.8 °F 24.3 °F 64% 30.25 in 10.0 mi West 10.4 mph - N/A   Clear
1:55 AM 35.6 °F 28.0 °F 23.9 °F 62% 30.25 in 10.0 mi West 10.4 mph - N/A   Clear
2:15 AM 35.1 °F 27.9 °F 24.1 °F 64% 30.25 in 10.0 mi West 9.2 mph - N/A   Clear
2:35 AM 34.7 °F 26.9 °F 24.1 °F 65% 30.25 in 10.0 mi West 10.4 mph - N/A   Clear
2:55 AM 34.3 °F 26.5 °F 23.9 °F 66% 30.25 in 10.0 mi West 10.4 mph - N/A   Clear
3:15 AM 34.2 °F 26.2 °F 23.9 °F 66% 30.25 in 10.0 mi West 10.4 mph - N/A   Clear
3:35 AM 33.8 °F 26.4 °F 23.7 °F 67% 30.25 in 10.0 mi West 9.2 mph - N/A   Clear
3:55 AM 33.4 °F 27.3 °F 23.5 °F 67% 30.25 in 10.0 mi West 6.9 mph - N/A   Clear
4:15 AM 32.9 °F 27.5 °F 23.5 °F 68% 30.25 in 10.0 mi West 5.8 mph - N/A   Clear
4:35 AM 32.2 °F 25.8 °F 23.5 °F 70% 30.25 in 10.0 mi West 6.9 mph - N/A   Clear
4:55 AM 32.5 °F 25.5 °F 23.0 °F 68% 30.25 in 10.0 mi WNW 8.1 mph - N/A   Clear
5:15 AM 32.9 °F 26.7 °F 22.6 °F 66% 30.24 in 10.0 mi WNW 6.9 mph - N/A   Clear
5:35 AM 32.4 °F 26.9 °F 22.3 °F 66% 30.25 in 10.0 mi West 5.8 mph - N/A   Clear
5:55 AM 32.0 °F 26.4 °F 22.1 °F 67% 30.25 in 10.0 mi WNW 5.8 mph - N/A   Clear
6:15 AM 32.0 °F 25.6 °F 22.1 °F 67% 30.25 in 10.0 mi WNW 6.9 mph - N/A   Clear
6:35 AM 32.0 °F 25.6 °F 21.9 °F 66% 30.26 in 10.0 mi West 6.9 mph - N/A   Clear
6:55 AM 31.1 °F 24.5 °F 21.7 °F 68% 30.26 in 10.0 mi West 6.9 mph - N/A   Clear
7:15 AM 30.4 °F 24.5 °F 21.7 °F 70% 30.27 in 10.0 mi West 5.8 mph - N/A   Clear
7:35 AM 31.1 °F 25.4 °F 21.7 °F 68% 30.27 in 10.0 mi West 5.8 mph - N/A   Clear
7:55 AM 31.8 °F 27.3 °F 21.9 °F 67% 30.28 in 10.0 mi West 4.6 mph - N/A   Clear
8:15 AM 32.5 °F 26.2 °F 22.1 °F 65% 30.28 in 10.0 mi WNW 6.9 mph - N/A   Clear
8:35 AM 34.2 °F 29.0 °F 22.1 °F 61% 30.28 in 10.0 mi WNW 5.8 mph - N/A   Clear
8:55 AM 35.2 °F 28.8 °F 21.7 °F 58% 30.29 in 10.0 mi WNW 8.1 mph - N/A   Clear
9:15 AM 36.5 °F 28.7 °F 21.6 °F 55% 30.29 in 10.0 mi NW 11.5 mph - N/A   Clear
9:35 AM 37.9 °F 30.0 °F 21.6 °F 52% 30.30 in 10.0 mi WNW 12.7 mph 17.3 mph N/A   Clear
9:55 AM 39.4 °F 32.3 °F 21.4 °F 49% 30.30 in 10.0 mi WNW 11.5 mph 16.1 mph N/A   Clear
10:15 AM 40.6 °F 34.3 °F 21.4 °F 46% 30.30 in 10.0 mi WNW 10.4 mph 16.1 mph N/A   Clear
10:35 AM 41.9 °F 35.0 °F 21.0 °F 43% 30.30 in 10.0 mi NW 12.7 mph - N/A   Clear
10:55 AM 43.0 °F 37.2 °F 20.8 °F 41% 30.30 in 10.0 mi NNW 10.4 mph - N/A   Clear
11:15 AM 43.7 °F 37.7 °F 20.1 °F 39% 30.30 in 10.0 mi NW 11.5 mph 18.4 mph N/A   Clear
11:35 AM 44.6 °F 39.7 °F 20.1 °F 38% 30.31 in 10.0 mi NW 9.2 mph - N/A   Clear
11:55 AM 45.1 °F 40.8 °F 19.9 °F 37% 30.31 in 10.0 mi NW 8.1 mph 17.3 mph N/A   Clear
12:15 PM 45.9 °F 41.7 °F 20.7 °F 37% 30.30 in 10.0 mi WNW 8.1 mph 19.6 mph N/A   Clear
12:35 PM 46.2 °F 39.8 °F 20.7 °F 36% 30.30 in 10.0 mi WNW 15.0 mph 19.6 mph N/A   Scattered Clouds
12:55 PM 47.3 °F - 20.5 °F 35% 30.29 in 10.0 mi NW 8.1 mph - N/A   Clear
1:15 PM 48.4 °F - 21.0 °F 34% 30.29 in 10.0 mi West 15.0 mph 24.2 mph N/A   Scattered Clouds
1:35 PM 48.6 °F - 21.4 °F 34% 30.29 in 10.0 mi NW 10.4 mph 19.6 mph N/A   Scattered Clouds
1:55 PM 48.9 °F - 21.9 °F 35% 30.29 in 10.0 mi WNW 13.8 mph 18.4 mph N/A   Mostly Cloudy
2:15 PM 49.3 °F - 21.6 °F 34% 30.28 in 10.0 mi WNW 13.8 mph 18.4 mph N/A   Scattered Clouds
2:35 PM 50.0 °F - 21.2 °F 32% 30.28 in 10.0 mi NW 9.2 mph 18.4 mph N/A   Scattered Clouds
2:55 PM 50.2 °F - 21.2 °F 32% 30.27 in 10.0 mi West 12.7 mph 19.6 mph N/A   Mostly Cloudy
3:15 PM 50.9 °F - 21.2 °F 31% 30.27 in 10.0 mi NW 15.0 mph 18.4 mph N/A   Mostly Cloudy
3:35 PM 51.3 °F - 20.5 °F 30% 30.26 in 10.0 mi NW 10.4 mph 19.6 mph N/A   Mostly Cloudy
3:55 PM 51.1 °F - 21.2 °F 31% 30.26 in 10.0 mi WNW 15.0 mph 21.9 mph N/A   Scattered Clouds
4:15 PM 51.1 °F - 21.4 °F 31% 30.26 in 10.0 mi WNW 9.2 mph 18.4 mph N/A   Mostly Cloudy
4:35 PM 52.2 °F - 20.7 °F 29% 30.26 in 10.0 mi NNW 12.7 mph 17.3 mph N/A   Overcast
4:55 PM 51.4 °F - 20.1 °F 29% 30.26 in 10.0 mi WNW 12.7 mph 17.3 mph N/A   Mostly Cloudy
5:15 PM 50.4 °F - 20.5 °F 31% 30.26 in 10.0 mi NW 10.4 mph - N/A   Mostly Cloudy
5:35 PM 51.4 °F - 20.3 °F 29% 30.26 in 10.0 mi West 12.7 mph 19.6 mph N/A   Mostly Cloudy
5:55 PM 50.5 °F - 20.5 °F 31% 30.26 in 10.0 mi NW 12.7 mph 16.1 mph N/A   Scattered Clouds
6:15 PM 50.4 °F - 19.9 °F 30% 30.26 in 10.0 mi NW 10.4 mph 17.3 mph N/A   Scattered Clouds
6:35 PM 50.0 °F - 20.1 °F 31% 30.26 in 10.0 mi West 11.5 mph - N/A   Scattered Clouds
6:55 PM 49.5 °F - 19.8 °F 31% 30.26 in 10.0 mi NW 9.2 mph - N/A   Scattered Clouds
7:15 PM 48.7 °F - 20.3 °F 33% 30.26 in 10.0 mi NW 8.1 mph - N/A   Clear
7:35 PM 47.8 °F - 21.2 °F 35% 30.27 in 10.0 mi NW 8.1 mph - N/A   Clear
7:55 PM 46.6 °F - 21.4 °F 37% 30.27 in 10.0 mi WNW 6.9 mph - N/A   Clear
8:15 PM 45.1 °F 42.0 °F 21.6 °F 39% 30.27 in 10.0 mi NW 5.8 mph - N/A   Clear
8:35 PM 43.7 °F 41.1 °F 21.7 °F 42% 30.28 in 10.0 mi NW 4.6 mph - N/A   Clear
8:55 PM 43.2 °F 40.5 °F 21.7 °F 43% 30.28 in 10.0 mi NW 4.6 mph - N/A   Clear
9:15 PM 43.2 °F - 21.7 °F 43% 30.28 in 10.0 mi Calm Calm - N/A   Clear
9:35 PM 43.3 °F 41.7 °F 21.7 °F 42% 30.29 in 10.0 mi WNW 3.5 mph - N/A   Clear
9:55 PM 41.5 °F 38.6 °F 22.6 °F 47% 30.29 in 10.0 mi West 4.6 mph - N/A   Clear
10:15 PM 41.0 °F 37.1 °F 22.8 °F 48% 30.29 in 10.0 mi WNW 5.8 mph - N/A   Clear
10:35 PM 40.1 °F 36.9 °F 22.8 °F 50% 30.30 in 10.0 mi WNW 4.6 mph - N/A   Clear
10:55 PM 39.6 °F 37.4 °F 22.8 °F 51% 30.30 in 10.0 mi WNW 3.5 mph - N/A   Clear
11:15 PM 39.0 °F - 23.4 °F 53% 30.30 in 10.0 mi Calm Calm - N/A   Clear
11:35 PM 34.9 °F - 24.8 °F 67% 30.30 in 10.0 mi Calm Calm - N/A   Clear
11:55 PM 35.4 °F - 24.6 °F 65% 30.30 in 10.0 mi Calm Calm - N/A   Clear